TimeEDT,TemperatureF,Dew PointF,Humidity,Sea Level PressureIn,VisibilityMPH,Wind Direction,Wind SpeedMPH,Gust SpeedMPH,PrecipitationIn,Events,Conditions,WindDirDegrees,DateUTC
12:53 AM,50.0,39.0,66,29.86,10.0,WNW,11.5,-,N/A,,Overcast,300,2013-09-24 04:53:00
1:53 AM,48.9,39.0,69,29.86,10.0,West,5.8,-,N/A,,Overcast,280,2013-09-24 05:53:00
2:53 AM,48.9,39.0,69,29.83,10.0,West,10.4,-,N/A,,Mostly Cloudy,280,2013-09-24 06:53:00
3:53 AM,48.9,37.9,66,29.84,10.0,West,6.9,-,N/A,,Overcast,280,2013-09-24 07:53:00
4:53 AM,48.9,37.9,66,29.83,10.0,WNW,6.9,-,N/A,,Overcast,290,2013-09-24 08:53:00
5:53 AM,48.9,37.9,66,29.83,10.0,West,9.2,-,N/A,,Overcast,280,2013-09-24 09:53:00
6:53 AM,48.9,39.0,69,29.83,10.0,WNW,6.9,-,N/A,,Overcast,290,2013-09-24 10:53:00
7:44 AM,48.2,39.2,71,29.82,10.0,West,3.5,-,N/A,,Overcast,280,2013-09-24 11:44:00
7:53 AM,48.0,39.0,71,29.82,10.0,Calm,Calm,-,N/A,,Overcast,0,2013-09-24 11:53:00
8:53 AM,48.0,39.0,71,29.82,10.0,West,4.6,-,N/A,,Overcast,260,2013-09-24 12:53:00
9:19 AM,48.2,41.0,76,29.83,3.0,WNW,6.9,-,0.00,Rain,Light Rain,300,2013-09-24 13:19:00
9:53 AM,46.0,42.1,86,29.83,7.0,West,5.8,-,0.03,Rain,Light Rain,280,2013-09-24 13:53:00
10:53 AM,46.9,43.0,86,29.82,10.0,West,10.4,16.1,0.01,,Overcast,280,2013-09-24 14:53:00
11:53 AM,50.0,41.0,71,29.81,10.0,WNW,16.1,26.5,0.01,,Overcast,300,2013-09-24 15:53:00
12:53 PM,50.0,41.0,71,29.80,10.0,WNW,13.8,24.2,N/A,,Overcast,300,2013-09-24 16:53:00
1:08 PM,51.8,41.0,67,29.80,10.0,NW,10.4,-,N/A,,Overcast,310,2013-09-24 17:08:00
1:32 PM,50.0,39.2,66,29.79,10.0,WNW,10.4,17.3,N/A,,Overcast,290,2013-09-24 17:32:00
1:53 PM,51.1,41.0,68,29.79,10.0,NW,11.5,18.4,N/A,,Overcast,310,2013-09-24 17:53:00
2:53 PM,52.0,41.0,66,29.80,10.0,NW,16.1,21.9,N/A,,Overcast,320,2013-09-24 18:53:00
3:53 PM,52.0,41.0,66,29.80,10.0,NW,9.2,-,N/A,,Overcast,310,2013-09-24 19:53:00
4:53 PM,52.0,42.1,69,29.81,10.0,NW,10.4,-,N/A,,Overcast,310,2013-09-24 20:53:00
5:08 PM,51.8,42.8,71,29.81,10.0,NW,17.3,23.0,N/A,,Overcast,320,2013-09-24 21:08:00
5:34 PM,51.8,42.8,71,29.81,10.0,NW,12.7,-,N/A,,Mostly Cloudy,320,2013-09-24 21:34:00
5:53 PM,52.0,43.0,71,29.82,10.0,NW,11.5,-,N/A,,Mostly Cloudy,320,2013-09-24 21:53:00
6:53 PM,51.1,42.1,71,29.83,10.0,NW,15.0,-,N/A,,Overcast,310,2013-09-24 22:53:00
7:53 PM,50.0,43.0,77,29.83,10.0,WNW,8.1,-,N/A,,Overcast,300,2013-09-24 23:53:00
8:53 PM,48.0,42.1,80,29.83,10.0,West,4.6,-,N/A,,Mostly Cloudy,270,2013-09-25 00:53:00
9:53 PM,46.9,43.0,86,29.84,10.0,West,4.6,-,N/A,,Mostly Cloudy,280,2013-09-25 01:53:00
10:53 PM,46.0,42.1,86,29.84,10.0,West,5.8,-,N/A,,Scattered Clouds,260,2013-09-25 02:53:00
11:53 PM,46.9,43.0,86,29.83,10.0,West,5.8,-,N/A,,Overcast,270,2013-09-25 03:53:00